Year,Month,Day,Hour,Minute,Value (Times are PST for windspeed in km/hr)
2009,12,04,00,00,1.60
2009,12,04,00,01,1.50
2009,12,04,00,02,0.50
2009,12,04,00,03,0.00
2009,12,04,00,04,0.00
2009,12,04,00,05,0.00
2009,12,04,00,06,0.00
2009,12,04,00,07,1.60
2009,12,04,00,08,2.10
2009,12,04,00,09,1.00
2009,12,04,00,10,0.10
2009,12,04,00,11,1.40
2009,12,04,00,12,1.60
2009,12,04,00,13,0.20
2009,12,04,00,14,0.60
2009,12,04,00,15,2.00
2009,12,04,00,16,1.80
2009,12,04,00,17,1.80
2009,12,04,00,18,1.60
2009,12,04,00,19,0.10
2009,12,04,00,20,0.00
2009,12,04,00,21,0.00
2009,12,04,00,22,0.00
2009,12,04,00,23,0.00
2009,12,04,00,24,0.00
2009,12,04,00,25,0.00
2009,12,04,00,26,0.00
2009,12,04,00,27,0.00
2009,12,04,00,28,0.00
2009,12,04,00,29,0.00
2009,12,04,00,30,0.00
2009,12,04,00,31,2.00
2009,12,04,00,32,1.70
2009,12,04,00,33,1.10
2009,12,04,00,34,0.00
2009,12,04,00,35,0.10
2009,12,04,00,36,0.90
2009,12,04,00,37,2.50
2009,12,04,00,38,1.50
2009,12,04,00,39,0.00
2009,12,04,00,40,1.00
2009,12,04,00,41,0.00
2009,12,04,00,42,0.00
2009,12,04,00,43,0.00
2009,12,04,00,44,0.00
2009,12,04,00,45,0.00
2009,12,04,00,46,0.00
2009,12,04,00,47,0.00
2009,12,04,00,48,0.00
2009,12,04,00,49,0.00
2009,12,04,00,50,0.00
2009,12,04,00,51,0.40
2009,12,04,00,52,2.00
2009,12,04,00,53,1.70
2009,12,04,00,54,1.40
2009,12,04,00,55,1.30
2009,12,04,00,56,2.00
2009,12,04,00,57,1.70
2009,12,04,00,58,1.00
2009,12,04,00,59,1.50
2009,12,04,01,00,0.10
2009,12,04,01,01,0.20
2009,12,04,01,02,0.00
2009,12,04,01,03,0.00
2009,12,04,01,04,0.10
2009,12,04,01,05,1.90
2009,12,04,01,06,1.40
2009,12,04,01,07,1.40
2009,12,04,01,08,1.40
2009,12,04,01,09,0.00
2009,12,04,01,10,0.00
2009,12,04,01,11,0.00
2009,12,04,01,12,0.00
2009,12,04,01,13,0.00
2009,12,04,01,14,1.90
2009,12,04,01,15,2.60
2009,12,04,01,16,2.00
2009,12,04,01,17,0.80
2009,12,04,01,18,2.50
2009,12,04,01,19,3.30
2009,12,04,01,20,2.00
2009,12,04,01,21,0.10
2009,12,04,01,22,0.50
2009,12,04,01,23,2.20
2009,12,04,01,24,2.00
2009,12,04,01,25,2.80
2009,12,04,01,26,2.40
2009,12,04,01,27,1.60
2009,12,04,01,28,1.80
2009,12,04,01,29,1.90
2009,12,04,01,30,2.40
2009,12,04,01,31,2.00
2009,12,04,01,32,2.00
2009,12,04,01,33,2.00
2009,12,04,01,34,2.10
2009,12,04,01,35,2.30
2009,12,04,01,36,2.40
2009,12,04,01,37,2.70
2009,12,04,01,38,2.30
2009,12,04,01,39,0.80
2009,12,04,01,40,0.70
2009,12,04,01,41,1.40
2009,12,04,01,42,2.80
2009,12,04,01,43,3.00
2009,12,04,01,44,2.30
2009,12,04,01,45,2.30
2009,12,04,01,46,2.30
2009,12,04,01,47,2.50
2009,12,04,01,48,2.30
2009,12,04,01,49,2.10
2009,12,04,01,50,2.00
2009,12,04,01,51,1.80
2009,12,04,01,52,2.30
2009,12,04,01,53,3.10
2009,12,04,01,54,2.80
2009,12,04,01,55,1.30
2009,12,04,01,56,0.00
2009,12,04,01,57,1.80
2009,12,04,01,58,1.60
2009,12,04,01,59,2.80
2009,12,04,02,00,2.80
2009,12,04,02,01,2.10
2009,12,04,02,02,0.00
2009,12,04,02,03,0.00
2009,12,04,02,04,0.60
2009,12,04,02,05,2.70
2009,12,04,02,06,1.70
2009,12,04,02,07,0.50
2009,12,04,02,08,2.50
2009,12,04,02,09,2.50
2009,12,04,02,10,2.00
2009,12,04,02,11,2.50
2009,12,04,02,12,2.00
2009,12,04,02,13,1.60
2009,12,04,02,14,2.10
2009,12,04,02,15,2.20
2009,12,04,02,16,2.00
2009,12,04,02,17,2.10
2009,12,04,02,18,0.10
2009,12,04,02,19,1.30
2009,12,04,02,20,1.10
2009,12,04,02,21,1.00
2009,12,04,02,22,1.70
2009,12,04,02,23,2.50
2009,12,04,02,24,0.30
2009,12,04,02,25,0.40
2009,12,04,02,26,0.60
2009,12,04,02,27,0.00
2009,12,04,02,28,0.00
2009,12,04,02,29,0.80
2009,12,04,02,30,2.70
2009,12,04,02,31,2.40
2009,12,04,02,32,0.10
2009,12,04,02,33,0.00
2009,12,04,02,34,0.20
2009,12,04,02,35,2.60
2009,12,04,02,36,2.10
2009,12,04,02,37,3.90
2009,12,04,02,38,0.30
2009,12,04,02,39,0.30
2009,12,04,02,40,0.00
2009,12,04,02,41,0.90
2009,12,04,02,42,0.10
2009,12,04,02,43,0.70
2009,12,04,02,44,0.30
2009,12,04,02,45,0.30
2009,12,04,02,46,1.10
2009,12,04,02,47,0.60
2009,12,04,02,48,1.50
2009,12,04,02,49,1.30
2009,12,04,02,50,1.70
2009,12,04,02,51,1.40
2009,12,04,02,52,0.80
2009,12,04,02,53,2.80
2009,12,04,02,54,2.00
2009,12,04,02,55,2.10
2009,12,04,02,56,0.80
2009,12,04,02,57,1.50
2009,12,04,02,58,1.80
2009,12,04,02,59,0.00
2009,12,04,03,00,1.00
2009,12,04,03,01,0.60
2009,12,04,03,02,2.30
2009,12,04,03,03,0.50
2009,12,04,03,04,1.10
2009,12,04,03,05,1.40
2009,12,04,03,06,1.70
2009,12,04,03,07,1.60
2009,12,04,03,08,2.00
2009,12,04,03,09,1.70
2009,12,04,03,10,2.10
2009,12,04,03,11,2.30
2009,12,04,03,12,1.90
2009,12,04,03,13,2.80
2009,12,04,03,14,1.00
2009,12,04,03,15,2.30
2009,12,04,03,16,2.00
2009,12,04,03,17,1.50
2009,12,04,03,18,1.60
2009,12,04,03,19,0.00
2009,12,04,03,20,0.00
2009,12,04,03,21,2.00
2009,12,04,03,22,1.60
2009,12,04,03,23,1.90
2009,12,04,03,24,1.40
2009,12,04,03,25,0.80
2009,12,04,03,26,0.00
2009,12,04,03,27,1.30
2009,12,04,03,28,2.50
2009,12,04,03,29,2.20
2009,12,04,03,30,0.20
2009,12,04,03,31,2.00
2009,12,04,03,32,2.10
2009,12,04,03,33,2.00
2009,12,04,03,34,1.80
2009,12,04,03,35,2.10
2009,12,04,03,36,3.10
2009,12,04,03,37,2.30
2009,12,04,03,38,2.50
2009,12,04,03,39,1.30
2009,12,04,03,40,1.30
2009,12,04,03,41,3.40
2009,12,04,03,42,2.30
2009,12,04,03,43,0.10
2009,12,04,03,44,1.50
2009,12,04,03,45,0.90
2009,12,04,03,46,1.90
2009,12,04,03,47,3.60
2009,12,04,03,48,2.40
2009,12,04,03,49,2.60
2009,12,04,03,50,0.80
2009,12,04,03,51,1.00
2009,12,04,03,52,0.60
2009,12,04,03,53,2.90
2009,12,04,03,54,2.40
2009,12,04,03,55,2.90
2009,12,04,03,56,3.10
2009,12,04,03,57,4.00
2009,12,04,03,58,4.40
2009,12,04,03,59,1.30
2009,12,04,04,00,1.40
2009,12,04,04,01,2.40
2009,12,04,04,02,2.20
2009,12,04,04,03,3.80
2009,12,04,04,04,1.40
2009,12,04,04,05,0.00
2009,12,04,04,06,2.30
2009,12,04,04,07,2.00
2009,12,04,04,08,0.40
2009,12,04,04,09,0.00
2009,12,04,04,10,0.30
2009,12,04,04,11,1.50
2009,12,04,04,12,2.20
2009,12,04,04,13,0.60
2009,12,04,04,14,3.50
2009,12,04,04,15,1.70
2009,12,04,04,16,3.80
2009,12,04,04,17,3.80
2009,12,04,04,18,0.50
2009,12,04,04,19,2.00
2009,12,04,04,20,2.90
2009,12,04,04,21,1.80
2009,12,04,04,22,2.10
2009,12,04,04,23,2.10
2009,12,04,04,24,0.10
2009,12,04,04,25,1.80
2009,12,04,04,26,1.90
2009,12,04,04,27,0.50
2009,12,04,04,28,2.70
2009,12,04,04,29,2.90
2009,12,04,04,30,3.90
2009,12,04,04,31,3.30
2009,12,04,04,32,1.80
2009,12,04,04,33,3.40
2009,12,04,04,34,2.10
2009,12,04,04,35,2.70
2009,12,04,04,36,3.00
2009,12,04,04,37,2.70
2009,12,04,04,38,3.60
2009,12,04,04,39,3.30
2009,12,04,04,40,0.40
2009,12,04,04,41,0.30
2009,12,04,04,42,3.50
2009,12,04,04,43,3.60
2009,12,04,04,44,1.80
2009,12,04,04,45,3.00
2009,12,04,04,46,3.50
2009,12,04,04,47,2.40
2009,12,04,04,48,2.30
2009,12,04,04,49,3.10
2009,12,04,04,50,3.70
2009,12,04,04,51,2.60
2009,12,04,04,52,3.50
2009,12,04,04,53,2.50
2009,12,04,04,54,3.00
2009,12,04,04,55,3.50
2009,12,04,04,56,1.10
2009,12,04,04,57,0.00
2009,12,04,04,58,0.90
2009,12,04,04,59,2.60
2009,12,04,05,00,3.80
2009,12,04,05,01,4.30
2009,12,04,05,02,1.80
2009,12,04,05,03,0.30
2009,12,04,05,04,2.70
2009,12,04,05,05,2.60
2009,12,04,05,06,2.10
2009,12,04,05,07,2.00
2009,12,04,05,08,2.10
2009,12,04,05,09,0.80
2009,12,04,05,10,1.70
2009,12,04,05,11,2.90
2009,12,04,05,12,3.10
2009,12,04,05,13,2.40
2009,12,04,05,14,1.80
2009,12,04,05,15,1.60
2009,12,04,05,16,2.20
2009,12,04,05,17,2.00
2009,12,04,05,18,2.40
2009,12,04,05,19,1.20
2009,12,04,05,20,1.10
2009,12,04,05,21,2.50
2009,12,04,05,22,2.10
2009,12,04,05,23,1.80
2009,12,04,05,24,2.40
2009,12,04,05,25,1.50
2009,12,04,05,26,1.40
2009,12,04,05,27,2.30
2009,12,04,05,28,2.70
2009,12,04,05,29,3.00
2009,12,04,05,30,0.60
2009,12,04,05,31,0.20
2009,12,04,05,32,2.10
2009,12,04,05,33,2.00
2009,12,04,05,34,2.90
2009,12,04,05,35,2.20
2009,12,04,05,36,1.50
2009,12,04,05,37,3.20
2009,12,04,05,38,2.50
2009,12,04,05,39,1.00
2009,12,04,05,40,2.80
2009,12,04,05,41,2.80
2009,12,04,05,42,1.50
2009,12,04,05,43,2.60
2009,12,04,05,44,1.90
2009,12,04,05,45,2.10
2009,12,04,05,46,2.50
2009,12,04,05,47,3.20
2009,12,04,05,48,3.70
2009,12,04,05,49,2.20
2009,12,04,05,50,2.50
2009,12,04,05,51,0.50
2009,12,04,05,52,2.50
2009,12,04,05,53,0.40
2009,12,04,05,54,1.40
2009,12,04,05,55,3.60
2009,12,04,05,56,1.10
2009,12,04,05,57,0.40
2009,12,04,05,58,3.50
2009,12,04,05,59,2.50
2009,12,04,06,00,0.30
2009,12,04,06,01,1.90
2009,12,04,06,02,1.90
2009,12,04,06,03,0.30
2009,12,04,06,04,0.50
2009,12,04,06,05,3.50
2009,12,04,06,06,1.50
2009,12,04,06,07,0.10
2009,12,04,06,08,2.90
2009,12,04,06,09,3.30
2009,12,04,06,10,1.40
2009,12,04,06,11,0.30
2009,12,04,06,12,0.00
2009,12,04,06,13,2.40
2009,12,04,06,14,2.10
2009,12,04,06,15,2.40
2009,12,04,06,16,1.10
2009,12,04,06,17,0.00
2009,12,04,06,18,0.10
2009,12,04,06,19,0.90
2009,12,04,06,20,0.90
2009,12,04,06,21,3.50
2009,12,04,06,22,2.90
2009,12,04,06,23,2.20
2009,12,04,06,24,0.30
2009,12,04,06,25,4.00
2009,12,04,06,26,2.40
2009,12,04,06,27,3.50
2009,12,04,06,28,3.50
2009,12,04,06,29,2.60
2009,12,04,06,30,1.00
2009,12,04,06,31,1.90
2009,12,04,06,32,2.50
2009,12,04,06,33,0.90
2009,12,04,06,34,3.20
2009,12,04,06,35,3.10
2009,12,04,06,36,0.00
2009,12,04,06,37,1.00
2009,12,04,06,38,1.20
2009,12,04,06,39,0.40
2009,12,04,06,40,1.90
2009,12,04,06,41,2.50
2009,12,04,06,42,2.70
2009,12,04,06,43,0.60
2009,12,04,06,44,2.10
2009,12,04,06,45,0.60
2009,12,04,06,46,1.40
2009,12,04,06,47,2.10
2009,12,04,06,48,2.50
2009,12,04,06,49,0.40
2009,12,04,06,50,1.90
2009,12,04,06,51,1.50
2009,12,04,06,52,1.90
2009,12,04,06,53,2.40
2009,12,04,06,54,0.50
2009,12,04,06,55,0.00
2009,12,04,06,56,1.60
2009,12,04,06,57,1.40
2009,12,04,06,58,1.80
2009,12,04,06,59,1.70
2009,12,04,07,00,0.10
2009,12,04,07,01,2.10
2009,12,04,07,02,0.20
2009,12,04,07,03,1.80
2009,12,04,07,04,1.30
2009,12,04,07,05,0.00
2009,12,04,07,06,1.50
2009,12,04,07,07,1.50
2009,12,04,07,08,1.90
2009,12,04,07,09,0.70
2009,12,04,07,10,0.00
2009,12,04,07,11,0.00
2009,12,04,07,12,0.00
2009,12,04,07,13,0.50
2009,12,04,07,14,0.60
2009,12,04,07,15,0.10
2009,12,04,07,16,0.00
2009,12,04,07,17,0.00
2009,12,04,07,18,1.60
2009,12,04,07,19,0.10
2009,12,04,07,20,0.00
2009,12,04,07,21,0.00
2009,12,04,07,22,0.70
2009,12,04,07,23,0.20
2009,12,04,07,24,0.00
2009,12,04,07,25,0.00
2009,12,04,07,26,0.00
2009,12,04,07,27,0.30
2009,12,04,07,28,0.00
2009,12,04,07,29,0.00
2009,12,04,07,30,0.10
2009,12,04,07,31,0.00
2009,12,04,07,32,0.00
2009,12,04,07,33,1.00
2009,12,04,07,34,0.00
2009,12,04,07,35,0.10
2009,12,04,07,36,0.20
2009,12,04,07,37,0.10
2009,12,04,07,38,0.00
2009,12,04,07,39,0.80
2009,12,04,07,40,5.10
2009,12,04,07,41,3.10
2009,12,04,07,42,5.50
2009,12,04,07,43,3.90
2009,12,04,07,44,0.70
2009,12,04,07,45,4.00
2009,12,04,07,46,5.70
2009,12,04,07,47,2.60
2009,12,04,07,48,3.40
2009,12,04,07,49,4.00
2009,12,04,07,50,3.20
2009,12,04,07,51,5.20
2009,12,04,07,52,3.40
2009,12,04,07,53,3.90
2009,12,04,07,54,4.00
2009,12,04,07,55,6.70
2009,12,04,07,56,7.60
2009,12,04,07,57,5.00
2009,12,04,07,58,6.90
2009,12,04,07,59,5.40
2009,12,04,08,00,4.20
2009,12,04,08,01,7.00
2009,12,04,08,02,12.10
2009,12,04,08,03,8.50
2009,12,04,08,04,8.90
2009,12,04,08,05,8.00
2009,12,04,08,06,7.40
2009,12,04,08,07,9.40
2009,12,04,08,08,9.50
2009,12,04,08,09,6.90
2009,12,04,08,10,7.60
2009,12,04,08,11,8.80
2009,12,04,08,12,9.70
2009,12,04,08,13,6.90
2009,12,04,08,14,9.00
2009,12,04,08,15,5.90
2009,12,04,08,16,9.40
2009,12,04,08,17,7.60
2009,12,04,08,18,9.10
2009,12,04,08,19,9.50
2009,12,04,08,20,8.10
2009,12,04,08,21,5.80
2009,12,04,08,22,8.60
2009,12,04,08,23,8.00
2009,12,04,08,24,10.80
2009,12,04,08,25,7.10
2009,12,04,08,26,5.70
2009,12,04,08,27,9.10
2009,12,04,08,28,7.00
2009,12,04,08,29,8.80
2009,12,04,08,30,5.40
2009,12,04,08,31,6.70
2009,12,04,08,32,8.80
2009,12,04,08,33,8.70
2009,12,04,08,34,6.70
2009,12,04,08,35,8.50
2009,12,04,08,36,6.00
2009,12,04,08,37,5.50
2009,12,04,08,38,6.60
2009,12,04,08,39,9.10
2009,12,04,08,40,8.60
2009,12,04,08,41,5.10
2009,12,04,08,42,4.90
2009,12,04,08,43,5.10
2009,12,04,08,44,10.80
2009,12,04,08,45,5.00
2009,12,04,08,46,4.70
2009,12,04,08,47,2.80
2009,12,04,08,48,1.30
2009,12,04,08,49,4.10
2009,12,04,08,50,1.80
2009,12,04,08,51,2.50
2009,12,04,08,52,4.10
2009,12,04,08,53,1.90
2009,12,04,08,54,1.40
2009,12,04,08,55,4.70
2009,12,04,08,56,3.10
2009,12,04,08,57,6.40
2009,12,04,08,58,4.50
2009,12,04,08,59,1.00
2009,12,04,09,00,0.00
2009,12,04,09,01,0.00
2009,12,04,09,02,0.50
2009,12,04,09,03,0.90
2009,12,04,09,04,2.60
2009,12,04,09,05,6.10
2009,12,04,09,06,0.60
2009,12,04,09,07,2.20
2009,12,04,09,08,2.90
2009,12,04,09,09,1.40
2009,12,04,09,10,0.00
2009,12,04,09,11,0.00
2009,12,04,09,12,0.00
2009,12,04,09,13,1.60
2009,12,04,09,14,1.50
2009,12,04,09,15,1.40
2009,12,04,09,16,2.50
2009,12,04,09,17,0.40
2009,12,04,09,18,0.00
2009,12,04,09,19,0.00
2009,12,04,09,20,0.60
2009,12,04,09,21,0.20
2009,12,04,09,22,4.90
2009,12,04,09,23,2.00
2009,12,04,09,24,0.60
2009,12,04,09,25,0.00
2009,12,04,09,26,2.20
2009,12,04,09,27,2.20
2009,12,04,09,28,0.50
2009,12,04,09,29,1.80
2009,12,04,09,30,2.70
2009,12,04,09,31,0.70
2009,12,04,09,32,4.30
2009,12,04,09,33,4.20
2009,12,04,09,34,0.80
2009,12,04,09,35,0.10
2009,12,04,09,36,4.10
2009,12,04,09,37,2.50
2009,12,04,09,38,0.00
2009,12,04,09,39,0.20
2009,12,04,09,40,0.00
2009,12,04,09,41,3.50
2009,12,04,09,42,0.80
2009,12,04,09,43,3.70
2009,12,04,09,44,0.10
2009,12,04,09,45,1.90
2009,12,04,09,46,4.90
2009,12,04,09,47,3.60
2009,12,04,09,48,0.00
2009,12,04,09,49,2.10
2009,12,04,09,50,5.80
2009,12,04,09,51,1.00
2009,12,04,09,52,3.50
2009,12,04,09,53,3.70
2009,12,04,09,54,2.60
2009,12,04,09,55,0.80
2009,12,04,09,56,0.00
2009,12,04,09,57,0.00
2009,12,04,09,58,1.70
2009,12,04,09,59,2.90
2009,12,04,10,00,3.70
2009,12,04,10,01,2.50
2009,12,04,10,02,1.90
2009,12,04,10,03,9.70
2009,12,04,10,04,4.70
2009,12,04,10,05,5.10
2009,12,04,10,06,6.70
2009,12,04,10,07,3.60
2009,12,04,10,08,3.50
2009,12,04,10,09,3.30
2009,12,04,10,10,1.00
2009,12,04,10,11,1.80
2009,12,04,10,12,4.70
2009,12,04,10,13,1.40
2009,12,04,10,14,4.60
2009,12,04,10,15,4.00
2009,12,04,10,16,5.10
2009,12,04,10,17,6.30
2009,12,04,10,18,4.70
2009,12,04,10,19,3.90
2009,12,04,10,20,3.00
2009,12,04,10,21,4.00
2009,12,04,10,22,3.90
2009,12,04,10,23,2.40
2009,12,04,10,24,6.00
2009,12,04,10,25,6.00
2009,12,04,10,26,1.70
2009,12,04,10,27,3.30
2009,12,04,10,28,4.70
2009,12,04,10,29,5.80
2009,12,04,10,30,7.70
2009,12,04,10,31,4.00
2009,12,04,10,32,2.40
2009,12,04,10,33,0.80
2009,12,04,10,34,0.50
2009,12,04,10,35,3.60
2009,12,04,10,36,4.70
2009,12,04,10,37,2.10
2009,12,04,10,38,5.10
2009,12,04,10,39,3.10
2009,12,04,10,40,2.80
2009,12,04,10,41,3.80
2009,12,04,10,42,2.90
2009,12,04,10,43,3.80
2009,12,04,10,44,4.70
2009,12,04,10,45,2.90
2009,12,04,10,46,4.30
2009,12,04,10,47,3.50
2009,12,04,10,48,2.00
2009,12,04,10,49,1.20
2009,12,04,10,50,2.70
2009,12,04,10,51,2.00
2009,12,04,10,52,4.20
2009,12,04,10,53,5.40
2009,12,04,10,54,6.50
2009,12,04,10,55,4.30
2009,12,04,10,56,4.20
2009,12,04,10,57,4.20
2009,12,04,10,58,4.00
2009,12,04,10,59,3.20
2009,12,04,11,00,4.70
2009,12,04,11,01,4.20
2009,12,04,11,02,1.20
2009,12,04,11,03,0.00
2009,12,04,11,04,2.30
2009,12,04,11,05,1.30
2009,12,04,11,06,4.90
2009,12,04,11,07,5.80
2009,12,04,11,08,6.40
2009,12,04,11,09,4.30
2009,12,04,11,10,3.40
2009,12,04,11,11,3.50
2009,12,04,11,12,3.10
2009,12,04,11,13,3.50
2009,12,04,11,14,4.70
2009,12,04,11,15,3.90
2009,12,04,11,16,2.60
2009,12,04,11,17,3.80
2009,12,04,11,18,4.50
2009,12,04,11,19,7.60
2009,12,04,11,20,4.10
2009,12,04,11,21,1.70
2009,12,04,11,22,4.40
2009,12,04,11,23,4.50
2009,12,04,11,24,2.40
2009,12,04,11,25,0.00
2009,12,04,11,26,5.50
2009,12,04,11,27,6.70
2009,12,04,11,28,3.30
2009,12,04,11,29,2.80
2009,12,04,11,30,2.40
2009,12,04,11,31,4.50
2009,12,04,11,32,1.20
2009,12,04,11,33,2.90
2009,12,04,11,34,4.60
2009,12,04,11,35,5.20
2009,12,04,11,36,6.70
2009,12,04,11,37,2.70
2009,12,04,11,38,0.10
2009,12,04,11,39,1.90
2009,12,04,11,40,0.60
2009,12,04,11,41,0.00
2009,12,04,11,42,0.00
2009,12,04,11,43,1.40
2009,12,04,11,44,3.90
2009,12,04,11,45,3.20
2009,12,04,11,46,1.80
2009,12,04,11,47,1.40
2009,12,04,11,48,0.60
2009,12,04,11,49,0.20
2009,12,04,11,50,0.00
2009,12,04,11,51,0.00
2009,12,04,11,52,3.70
2009,12,04,11,53,1.60
2009,12,04,11,54,0.10
2009,12,04,11,55,1.90
2009,12,04,11,56,1.10
2009,12,04,11,57,0.90
2009,12,04,11,58,1.30
2009,12,04,11,59,5.30
2009,12,04,12,00,2.30
2009,12,04,12,01,2.70
2009,12,04,12,02,2.20
2009,12,04,12,03,3.40
2009,12,04,12,04,3.50
2009,12,04,12,05,0.60
2009,12,04,12,06,0.10
2009,12,04,12,07,1.40
2009,12,04,12,08,0.00
2009,12,04,12,09,0.10
2009,12,04,12,10,1.30
2009,12,04,12,11,0.00
2009,12,04,12,12,0.30
2009,12,04,12,13,2.60
2009,12,04,12,14,0.00
2009,12,04,12,15,0.60
2009,12,04,12,16,1.90
2009,12,04,12,17,0.60
2009,12,04,12,18,2.00
2009,12,04,12,19,0.80
2009,12,04,12,20,0.00
2009,12,04,12,21,0.20
2009,12,04,12,22,4.40
2009,12,04,12,23,4.30
2009,12,04,12,24,6.70
2009,12,04,12,25,2.10
2009,12,04,12,26,2.50
2009,12,04,12,27,2.30
2009,12,04,12,28,0.80
2009,12,04,12,29,2.10
2009,12,04,12,30,3.80
2009,12,04,12,31,2.70
2009,12,04,12,32,2.90
2009,12,04,12,33,1.50
2009,12,04,12,34,0.30
2009,12,04,12,35,2.70
2009,12,04,12,36,4.30
2009,12,04,12,37,3.50
2009,12,04,12,38,2.30
2009,12,04,12,39,0.50
2009,12,04,12,40,1.90
2009,12,04,12,41,5.00
2009,12,04,12,42,2.20
2009,12,04,12,43,1.90
2009,12,04,12,44,1.40
2009,12,04,12,45,0.00
2009,12,04,12,46,0.80
2009,12,04,12,47,4.40
2009,12,04,12,48,2.10
2009,12,04,12,49,2.00
2009,12,04,12,50,0.30
2009,12,04,12,51,0.10
2009,12,04,12,52,0.00
2009,12,04,12,53,1.20
2009,12,04,12,54,1.20
2009,12,04,12,55,1.40
2009,12,04,12,56,0.00
2009,12,04,12,57,0.00
2009,12,04,12,58,2.30
2009,12,04,12,59,4.20
2009,12,04,13,00,5.50
2009,12,04,13,01,3.70
2009,12,04,13,02,2.10
2009,12,04,13,03,6.30
2009,12,04,13,04,4.90
2009,12,04,13,05,5.70
2009,12,04,13,06,4.10
2009,12,04,13,07,0.60
2009,12,04,13,08,5.20
2009,12,04,13,09,2.40
2009,12,04,13,10,0.50
2009,12,04,13,11,2.30
2009,12,04,13,12,0.80
2009,12,04,13,13,1.60
2009,12,04,13,14,3.20
2009,12,04,13,15,0.50
2009,12,04,13,16,0.80
2009,12,04,13,17,2.10
2009,12,04,13,18,3.20
2009,12,04,13,19,2.80
2009,12,04,13,20,4.00
2009,12,04,13,21,4.70
2009,12,04,13,22,4.70
2009,12,04,13,23,1.10
2009,12,04,13,24,0.00
2009,12,04,13,25,4.30
2009,12,04,13,26,3.10
2009,12,04,13,27,3.00
2009,12,04,13,28,1.60
2009,12,04,13,29,0.90
2009,12,04,13,30,0.80
2009,12,04,13,31,0.40
2009,12,04,13,32,2.20
2009,12,04,13,33,1.50
2009,12,04,13,34,2.80
2009,12,04,13,35,0.70
2009,12,04,13,36,0.60
2009,12,04,13,37,1.80
2009,12,04,13,38,0.60
2009,12,04,13,39,0.70
2009,12,04,13,40,0.00
2009,12,04,13,41,1.80
2009,12,04,13,42,2.70
2009,12,04,13,43,0.50
2009,12,04,13,44,0.80
2009,12,04,13,45,0.00
2009,12,04,13,46,0.90
2009,12,04,13,47,1.20
2009,12,04,13,48,0.00
2009,12,04,13,49,0.50
2009,12,04,13,50,3.60
2009,12,04,13,51,2.40
2009,12,04,13,52,3.60
2009,12,04,13,53,4.30
2009,12,04,13,54,3.00
2009,12,04,13,55,0.30
2009,12,04,13,56,0.00
2009,12,04,13,57,1.60
2009,12,04,13,58,4.20
2009,12,04,13,59,2.70
2009,12,04,14,00,3.60
2009,12,04,14,01,3.10
2009,12,04,14,02,5.80
2009,12,04,14,03,3.10
2009,12,04,14,04,7.80
2009,12,04,14,05,1.80
2009,12,04,14,06,5.80
2009,12,04,14,07,3.70
2009,12,04,14,08,3.00
2009,12,04,14,09,0.20
2009,12,04,14,10,1.10
2009,12,04,14,11,0.60
2009,12,04,14,12,1.10
2009,12,04,14,13,3.00
2009,12,04,14,14,4.30
2009,12,04,14,15,2.50
2009,12,04,14,16,2.50
2009,12,04,14,17,0.60
2009,12,04,14,18,5.00
2009,12,04,14,19,2.30
2009,12,04,14,20,2.00
2009,12,04,14,21,4.00
2009,12,04,14,22,1.40
2009,12,04,14,23,4.00
2009,12,04,14,24,5.50
2009,12,04,14,25,5.00
2009,12,04,14,26,7.60
2009,12,04,14,27,5.00
2009,12,04,14,28,4.20
2009,12,04,14,29,5.10
2009,12,04,14,30,5.20
2009,12,04,14,31,1.40
2009,12,04,14,32,2.50
2009,12,04,14,33,4.90
2009,12,04,14,34,2.40
2009,12,04,14,35,4.70
2009,12,04,14,36,7.40
2009,12,04,14,37,5.30
2009,12,04,14,38,1.70
2009,12,04,14,39,6.30
2009,12,04,14,40,4.50
2009,12,04,14,41,2.30
2009,12,04,14,42,4.50
2009,12,04,14,43,8.60
2009,12,04,14,44,5.80
2009,12,04,14,45,1.90
2009,12,04,14,46,1.80
2009,12,04,14,47,4.70
2009,12,04,14,48,7.20
2009,12,04,14,49,4.30
2009,12,04,14,50,5.10
2009,12,04,14,51,11.90
2009,12,04,14,52,1.70
2009,12,04,14,53,7.50
2009,12,04,14,54,8.80
2009,12,04,14,55,6.80
2009,12,04,14,56,4.80
2009,12,04,14,57,6.90
2009,12,04,14,58,4.30
2009,12,04,14,59,3.40
2009,12,04,15,00,4.10
2009,12,04,15,01,2.70
2009,12,04,15,02,5.50
2009,12,04,15,03,6.40
2009,12,04,15,04,7.50
2009,12,04,15,05,2.70
2009,12,04,15,06,4.90
2009,12,04,15,07,2.10
2009,12,04,15,08,4.40
2009,12,04,15,09,4.00
2009,12,04,15,10,2.70
2009,12,04,15,11,8.30
2009,12,04,15,12,6.40
2009,12,04,15,13,1.20
2009,12,04,15,14,4.50
2009,12,04,15,15,5.00
2009,12,04,15,16,7.80
2009,12,04,15,17,3.20
2009,12,04,15,18,4.50
2009,12,04,15,19,4.10
2009,12,04,15,20,6.70
2009,12,04,15,21,4.90
2009,12,04,15,22,5.40
2009,12,04,15,23,3.70
2009,12,04,15,24,5.60
2009,12,04,15,25,4.70
2009,12,04,15,26,7.20
2009,12,04,15,27,11.60
2009,12,04,15,28,7.30
2009,12,04,15,29,1.50
2009,12,04,15,30,1.60
2009,12,04,15,31,8.00
2009,12,04,15,32,6.40
2009,12,04,15,33,3.10
2009,12,04,15,34,3.70
2009,12,04,15,35,1.70
2009,12,04,15,36,4.20
2009,12,04,15,37,7.70
2009,12,04,15,38,5.00
2009,12,04,15,39,4.70
2009,12,04,15,40,8.00
2009,12,04,15,41,1.20
2009,12,04,15,42,5.90
2009,12,04,15,43,10.00
2009,12,04,15,44,6.00
2009,12,04,15,45,9.50
2009,12,04,15,46,5.20
2009,12,04,15,47,5.30
2009,12,04,15,48,7.70
2009,12,04,15,49,9.40
2009,12,04,15,50,7.60
2009,12,04,15,51,2.80
2009,12,04,15,52,10.50
2009,12,04,15,53,4.00
2009,12,04,15,54,5.30
2009,12,04,15,55,5.80
2009,12,04,15,56,3.90
2009,12,04,15,57,2.40
2009,12,04,15,58,5.20
2009,12,04,15,59,3.60
2009,12,04,16,00,4.10
2009,12,04,16,01,3.00
2009,12,04,16,02,3.00
2009,12,04,16,03,6.20
2009,12,04,16,04,4.60
2009,12,04,16,05,5.40
2009,12,04,16,06,1.20
2009,12,04,16,07,4.10
2009,12,04,16,08,9.90
2009,12,04,16,09,2.90
2009,12,04,16,10,1.40
2009,12,04,16,11,0.00
2009,12,04,16,12,5.00
2009,12,04,16,13,1.80
2009,12,04,16,14,0.30
2009,12,04,16,15,1.30
2009,12,04,16,16,0.30
2009,12,04,16,17,0.00
2009,12,04,16,18,0.20
2009,12,04,16,19,2.80
2009,12,04,16,20,2.80
2009,12,04,16,21,0.60
2009,12,04,16,22,2.20
2009,12,04,16,23,0.70
2009,12,04,16,24,4.20
2009,12,04,16,25,2.10
2009,12,04,16,26,4.90
2009,12,04,16,27,4.60
2009,12,04,16,28,5.50
2009,12,04,16,29,4.00
2009,12,04,16,30,8.20
2009,12,04,16,31,4.70
2009,12,04,16,32,3.50
2009,12,04,16,33,3.20
2009,12,04,16,34,3.50
2009,12,04,16,35,5.40
2009,12,04,16,36,5.30
2009,12,04,16,37,4.90
2009,12,04,16,38,2.90
2009,12,04,16,39,4.60
2009,12,04,16,40,7.30
2009,12,04,16,41,7.50
2009,12,04,16,42,4.00
2009,12,04,16,43,1.90
2009,12,04,16,44,2.70
2009,12,04,16,45,4.30
2009,12,04,16,46,2.80
2009,12,04,16,47,0.70
2009,12,04,16,48,7.00
2009,12,04,16,49,5.00
2009,12,04,16,50,4.20
2009,12,04,16,51,6.80
2009,12,04,16,52,4.10
2009,12,04,16,53,4.60
2009,12,04,16,54,5.80
2009,12,04,16,55,5.20
2009,12,04,16,56,5.60
2009,12,04,16,57,3.60
2009,12,04,16,58,5.90
2009,12,04,16,59,3.60
2009,12,04,17,00,6.50
2009,12,04,17,01,5.60
2009,12,04,17,02,3.30
2009,12,04,17,03,9.10
2009,12,04,17,04,6.40
2009,12,04,17,05,2.30
2009,12,04,17,06,5.60
2009,12,04,17,07,4.60
2009,12,04,17,08,6.00
2009,12,04,17,09,3.70
2009,12,04,17,10,3.20
2009,12,04,17,11,4.10
2009,12,04,17,12,3.10
2009,12,04,17,13,2.70
2009,12,04,17,14,5.10
2009,12,04,17,15,6.40
2009,12,04,17,16,10.90
2009,12,04,17,17,6.00
2009,12,04,17,18,5.30
2009,12,04,17,19,11.50
2009,12,04,17,20,5.90
2009,12,04,17,21,3.40
2009,12,04,17,22,5.80
2009,12,04,17,23,5.30
2009,12,04,17,24,7.80
2009,12,04,17,25,4.30
2009,12,04,17,26,4.40
2009,12,04,17,27,4.40
2009,12,04,17,28,10.00
2009,12,04,17,29,7.50
2009,12,04,17,30,6.40
2009,12,04,17,31,5.10
2009,12,04,17,32,7.30
2009,12,04,17,33,8.10
2009,12,04,17,34,12.50
2009,12,04,17,35,8.50
2009,12,04,17,36,11.70
2009,12,04,17,37,6.10
2009,12,04,17,38,10.00
2009,12,04,17,39,7.30
2009,12,04,17,40,3.70
2009,12,04,17,41,6.20
2009,12,04,17,42,9.70
2009,12,04,17,43,7.60
2009,12,04,17,44,3.10
2009,12,04,17,45,8.60
2009,12,04,17,46,8.10
2009,12,04,17,47,5.60
2009,12,04,17,48,7.70
2009,12,04,17,49,8.40
2009,12,04,17,50,5.20
2009,12,04,17,51,10.10
2009,12,04,17,52,6.40
2009,12,04,17,53,3.90
2009,12,04,17,54,9.60
2009,12,04,17,55,10.20
2009,12,04,17,56,4.30
2009,12,04,17,57,3.70
2009,12,04,17,58,4.80
2009,12,04,17,59,6.60
2009,12,04,18,00,6.60
2009,12,04,18,01,3.10
2009,12,04,18,02,5.40
2009,12,04,18,03,6.00
2009,12,04,18,04,6.50
2009,12,04,18,05,6.60